| time (UTC) | temp C | wind direction | speed KPH | gust KPH | rain 1hr cm | rain 24hr cm | rain mn cm | humidity % | barometer mb |
| 20260505153203 | 25 | 186 | 8.0 | 20.9 | 0.00 | 0.00 | 0.00 | 48 | 1011.2 |
| 20260505152703 | 25 | 180 | 0.0 | 16.1 | 0.00 | 0.00 | 0.00 | 51 | 1010.8 |
| 20260505152203 | 25 | 199 | 12.9 | 27.4 | 0.00 | 0.00 | 0.00 | 49 | 1011.2 |
| 20260505151703 | 25 | 199 | 9.7 | 20.9 | 0.00 | 0.00 | 0.00 | 50 | 1011.0 |
| 20260505151203 | 24 | 176 | 9.7 | 16.1 | 0.00 | 0.00 | 0.00 | 50 | 1011.2 |
| 20260505150703 | 24 | 173 | 11.3 | 24.1 | 0.00 | 0.00 | 0.00 | 50 | 1011.2 |
| 20260505150203 | 24 | 185 | 9.7 | 24.1 | 0.00 | 0.00 | 0.00 | 50 | 1011.2 |
| 20260505140203 | 21 | 207 | 4.8 | 20.9 | 0.00 | 0.00 | 0.00 | 56 | 1011.5 |
| 20260505130203 | 19 | 244 | 11.3 | 27.4 | 0.00 | 0.00 | 0.00 | 64 | 1011.5 |
| 20260505124203 | 18 | 172 | 6.4 | 20.9 | 0.00 | 0.00 | 0.00 | 67 | 1011.5 |
| 20260505123704 | 17 | 170 | 8.0 | 27.4 | 0.00 | 0.00 | 0.00 | 68 | 1011.3 |
| 20260505123203 | 17 | 186 | 4.8 | 20.9 | 0.00 | 0.00 | 0.00 | 69 | 1011.5 |
| 20260505122202 | 16 | 188 | 4.8 | 16.1 | 0.00 | 0.00 | 0.00 | 71 | 1011.5 |
| 20260505121704 | 15 | 188 | 8.0 | 20.9 | 0.00 | 0.00 | 0.00 | 74 | 1011.5 |
| 20260505115703 | 12 | 172 | 1.6 | 8.0 | 0.00 | 0.00 | 0.00 | 92 | 1011.2 |
| 20260505115203 | 12 | 180 | 0.0 | 8.0 | 0.00 | 0.00 | 0.00 | 94 | 1011.2 |
| 20260505114703 | 12 | 135 | 0.0 | 0.0 | 0.00 | 0.00 | 0.00 | 94 | 1011.2 |
| 20260505114204 | 12 | 135 | 0.0 | 0.0 | 0.00 | 0.00 | 0.00 | 94 | 1011.2 |
| 20260505112212 | 12 | 135 | 0.0 | 0.0 | 0.00 | 0.00 | 0.00 | 94 | 1011.2 |
| 20260505111703 | 12 | 135 | 0.0 | 0.0 | 0.00 | 0.00 | 0.00 | 94 | 1011.4 |
| 20260505111203 | 12 | 132 | 0.0 | 0.0 | 0.00 | 0.00 | 0.00 | 94 | 1011.4 |
| 20260505110703 | 12 | 128 | 0.0 | 0.0 | 0.00 | 0.00 | 0.00 | 93 | 1011.2 |
| 20260505110206 | 12 | 126 | 0.0 | 0.0 | 0.00 | 0.00 | 0.00 | 93 | 1011.4 |
| 20260505102204 | 12 | 139 | 0.0 | 0.0 | 0.00 | 0.00 | 0.00 | 91 | 1010.8 |
| 20260505101704 | 12 | 137 | 0.0 | 0.0 | 0.00 | 0.00 | 0.00 | 91 | 1010.8 |
| 20260505101203 | 12 | 137 | 0.0 | 0.0 | 0.00 | 0.00 | 0.00 | 92 | 1010.5 |
| 20260505100703 | 12 | 152 | 0.0 | 0.0 | 0.00 | 0.00 | 0.00 | 92 | 1010.5 |
| 20260505095703 | 12 | 156 | 0.0 | 3.2 | 0.00 | 0.00 | 0.00 | 92 | 1010.5 |
| 20260505095203 | 12 | 149 | 0.0 | 3.2 | 0.00 | 0.00 | 0.00 | 91 | 1010.5 |
| 20260505094704 | 12 | 195 | 0.0 | 3.2 | 0.00 | 0.00 | 0.00 | 92 | 1010.5 |
| 20260505094203 | 12 | 164 | 0.0 | 0.0 | 0.00 | 0.00 | 0.00 | 91 | 1010.6 |
| 20260505093703 | 12 | 167 | 0.0 | 0.0 | 0.00 | 0.00 | 0.00 | 91 | 1010.6 |
| 20260505092703 | 12 | 154 | 0.0 | 0.0 | 0.00 | 0.00 | 0.00 | 91 | 1010.6 |
| 20260505092203 | 12 | 153 | 0.0 | 3.2 | 0.00 | 0.00 | 0.00 | 90 | 1010.3 |
| 20260505091703 | 13 | 155 | 0.0 | 3.2 | 0.00 | 0.00 | 0.00 | 90 | 1010.2 |
| 20260505091203 | 13 | 157 | 0.0 | 0.0 | 0.00 | 0.00 | 0.00 | 90 | 1010.2 |
| 20260505090203 | 13 | 154 | 0.0 | 3.2 | 0.00 | 0.00 | 0.00 | 89 | 1010.2 |
| 20260505085703 | 13 | 168 | 0.0 | 0.0 | 0.00 | 0.00 | 0.00 | 88 | 1010.5 |
| 20260505085203 | 13 | 160 | 0.0 | 3.2 | 0.00 | 0.00 | 0.00 | 88 | 1010.5 |
| 20260505084703 | 13 | 147 | 0.0 | 3.2 | 0.00 | 0.00 | 0.00 | 87 | 1010.5 |
| 20260505084204 | 13 | 150 | 0.0 | 0.0 | 0.00 | 0.00 | 0.00 | 87 | 1010.5 |
| 20260505083221 | 13 | 157 | 0.0 | 0.0 | 0.00 | 0.00 | 0.00 | 86 | 1010.5 |
| 20260505082212 | 13 | 163 | 0.0 | 0.0 | 0.00 | 0.00 | 0.00 | 85 | 1010.5 |
| 20260505081711 | 13 | 173 | 0.0 | 8.0 | 0.00 | 0.00 | 0.00 | 84 | 1010.7 |
| 20260505081212 | 13 | 181 | 1.6 | 8.0 | 0.00 | 0.00 | 0.00 | 85 | 1010.8 |
| 20260505080703 | 13 | 191 | 1.6 | 8.0 | 0.00 | 0.00 | 0.00 | 85 | 1010.5 |
| 20260505080203 | 13 | 191 | 1.6 | 8.0 | 0.00 | 0.00 | 0.00 | 86 | 1010.5 |
| 20260505075203 | 13 | 170 | 1.6 | 8.0 | 0.00 | 0.00 | 0.00 | 86 | 1010.5 |
| 20260505074704 | 13 | 181 | 0.0 | 8.0 | 0.00 | 0.00 | 0.00 | 87 | 1010.7 |
| 20260505074203 | 13 | 184 | 1.6 | 8.0 | 0.00 | 0.00 | 0.00 | 87 | 1010.5 |
| 20260505073203 | 13 | 166 | 0.0 | 3.2 | 0.00 | 0.00 | 0.00 | 86 | 1010.3 |
| 20260505072705 | 13 | 148 | 0.0 | 3.2 | 0.00 | 0.00 | 0.00 | 86 | 1010.2 |
| 20260505071203 | 13 | 196 | 3.2 | 11.3 | 0.00 | 0.00 | 0.00 | 83 | 1010.4 |
| 20260505070703 | 14 | 144 | 4.8 | 11.3 | 0.00 | 0.00 | 0.00 | 83 | 1010.2 |
| 20260505070204 | 14 | 170 | 3.2 | 11.3 | 0.00 | 0.00 | 0.00 | 83 | 1010.2 |
| 20260505065703 | 14 | 187 | 1.6 | 8.0 | 0.00 | 0.00 | 0.00 | 83 | 1010.2 |
| 20260505065203 | 14 | 192 | 4.8 | 11.3 | 0.00 | 0.00 | 0.00 | 83 | 1010.2 |
| 20260505064703 | 14 | 184 | 4.8 | 11.3 | 0.00 | 0.00 | 0.00 | 82 | 1010.2 |
| 20260505063703 | 14 | 183 | 3.2 | 11.3 | 0.00 | 0.00 | 0.00 | 82 | 1010.5 |
| 20260505063203 | 14 | 196 | 3.2 | 8.0 | 0.00 | 0.00 | 0.00 | 82 | 1010.2 |
| 20260505062703 | 14 | 172 | 0.0 | 11.3 | 0.00 | 0.00 | 0.00 | 82 | 1010.2 |
| 20260505062204 | 14 | 195 | 1.6 | 8.0 | 0.00 | 0.00 | 0.00 | 81 | 1010.5 |
| 20260505061703 | 14 | 205 | 4.8 | 8.0 | 0.00 | 0.00 | 0.00 | 80 | 1010.5 |
| 20260505061203 | 14 | 161 | 4.8 | 11.3 | 0.00 | 0.00 | 0.00 | 80 | 1010.2 |
| 20260505060703 | 15 | 196 | 4.8 | 11.3 | 0.00 | 0.00 | 0.00 | 79 | 1010.2 |
| 20260505060204 | 15 | 193 | 4.8 | 16.1 | 0.00 | 0.00 | 0.00 | 79 | 1010.2 |
| 20260505055703 | 15 | 198 | 4.8 | 16.1 | 0.00 | 0.00 | 0.00 | 78 | 1010.4 |
| 20260505054703 | 15 | 203 | 4.8 | 8.0 | 0.00 | 0.00 | 0.00 | 78 | 1010.2 |
| 20260505054203 | 15 | 201 | 4.8 | 8.0 | 0.00 | 0.00 | 0.00 | 78 | 1010.2 |
| 20260505053704 | 15 | 197 | 4.8 | 11.3 | 0.00 | 0.00 | 0.00 | 78 | 1010.5 |
| 20260505053204 | 15 | 196 | 3.2 | 11.3 | 0.00 | 0.00 | 0.00 | 77 | 1010.5 |
| 20260505052703 | 15 | 176 | 3.2 | 16.1 | 0.00 | 0.00 | 0.00 | 77 | 1010.4 |
| 20260505051204 | 15 | 184 | 6.4 | 20.9 | 0.00 | 0.00 | 0.00 | 75 | 1010.5 |
| 20260505050703 | 15 | 190 | 4.8 | 11.3 | 0.00 | 0.00 | 0.00 | 75 | 1010.5 |
| 20260505041703 | 16 | 200 | 6.4 | 16.1 | 0.00 | 0.00 | 0.00 | 72 | 1010.8 |
| 20260505041203 | 16 | 191 | 4.8 | 16.1 | 0.00 | 0.00 | 0.00 | 72 | 1010.5 |
| 20260505040703 | 15 | 202 | 4.8 | 11.3 | 0.00 | 0.00 | 0.00 | 72 | 1010.7 |
| 20260505040203 | 15 | 167 | 3.2 | 16.1 | 0.00 | 0.00 | 0.00 | 72 | 1010.5 |
| 20260505035703 | 15 | 193 | 1.6 | 11.3 | 0.00 | 0.00 | 0.00 | 72 | 1010.5 |
| 20260505035204 | 15 | 188 | 6.4 | 11.3 | 0.00 | 0.00 | 0.00 | 71 | 1010.5 |
| 20260505034704 | 15 | 176 | 4.8 | 16.1 | 0.00 | 0.00 | 0.00 | 71 | 1010.7 |
| 20260505033703 | 14 | 165 | 4.8 | 16.1 | 0.00 | 0.00 | 0.00 | 72 | 1010.5 |
| 20260505033203 | 14 | 181 | 3.2 | 16.1 | 0.00 | 0.00 | 0.00 | 73 | 1010.5 |
| 20260505032704 | 13 | 194 | 4.8 | 16.1 | 0.00 | 0.00 | 0.00 | 75 | 1010.8 |
| 20260505031705 | 13 | 137 | 0.0 | 8.0 | 0.00 | 0.00 | 0.00 | 77 | 1010.8 |
| 20260505030706 | 13 | 173 | 0.0 | 3.2 | 0.00 | 0.00 | 0.00 | 79 | 1010.8 |
| 20260505025704 | 14 | 159 | 0.0 | 0.0 | 0.00 | 0.00 | 0.00 | 77 | 1010.8 |
| 20260505024703 | 14 | 193 | 0.0 | 0.0 | 0.00 | 0.00 | 0.00 | 77 | 1010.8 |
| 20260505024204 | 15 | 136 | 0.0 | 0.0 | 0.00 | 0.00 | 0.00 | 75 | 1010.8 |
| 20260505022704 | 15 | 148 | 0.0 | 0.0 | 0.00 | 0.00 | 0.00 | 72 | 1010.9 |
| 20260505022203 | 15 | 159 | 0.0 | 0.0 | 0.00 | 0.00 | 0.00 | 71 | 1011.2 |
| 20260505021716 | 15 | 162 | 0.0 | 3.2 | 0.00 | 0.00 | 0.00 | 69 | 1010.9 |
| 20260505021203 | 15 | 169 | 0.0 | 8.0 | 0.00 | 0.00 | 0.00 | 68 | 1010.8 |
| 20260505020703 | 15 | 180 | 0.0 | 8.0 | 0.00 | 0.00 | 0.00 | 68 | 1011.2 |
| 20260505020203 | 15 | 200 | 1.6 | 8.0 | 0.00 | 0.00 | 0.00 | 66 | 1010.8 |
| 20260505015203 | 16 | 164 | 1.6 | 11.3 | 0.00 | 0.00 | 0.00 | 66 | 1011.1 |
| 20260505014704 | 16 | 183 | 1.6 | 8.0 | 0.00 | 0.00 | 0.00 | 66 | 1011.2 |
| 20260505014205 | 16 | 173 | 0.0 | 0.0 | 0.00 | 0.00 | 0.00 | 65 | 1010.8 |
| 20260505013706 | 16 | 153 | 0.0 | 8.0 | 0.00 | 0.00 | 0.00 | 64 | 1011.0 |
| 20260505013203 | 15 | 166 | 0.0 | 8.0 | 0.00 | 0.00 | 0.00 | 63 | 1010.8 |
| 20260505012703 | 15 | 173 | 0.0 | 8.0 | 0.00 | 0.00 | 0.00 | 62 | 1010.8 |
| 20260505012204 | 15 | 173 | 0.0 | 11.3 | 0.00 | 0.00 | 0.00 | 62 | 1010.8 |
| 20260505011712 | 15 | 168 | 1.6 | 11.3 | 0.00 | 0.00 | 0.00 | 62 | 1010.5 |
| 20260505011204 | 15 | 179 | 3.2 | 8.0 | 0.00 | 0.00 | 0.00 | 63 | 1010.5 |
| 20260505010704 | 15 | 179 | 1.6 | 8.0 | 0.00 | 0.00 | 0.00 | 63 | 1010.5 |
| 20260505005204 | 16 | 143 | 0.0 | 0.0 | 0.00 | 0.00 | 0.00 | 67 | 1010.5 |
| 20260505004704 | 16 | 148 | 0.0 | 0.0 | 0.00 | 0.00 | 0.00 | 66 | 1010.5 |
| 20260505003703 | 17 | 149 | 0.0 | 0.0 | 0.00 | 0.00 | 0.00 | 65 | 1010.5 |
| 20260505003203 | 17 | 150 | 0.0 | 0.0 | 0.00 | 0.00 | 0.00 | 64 | 1010.2 |
| 20260505002703 | 17 | 140 | 0.0 | 0.0 | 0.00 | 0.00 | 0.00 | 63 | 1010.2 |
| 20260505002203 | 18 | 137 | 0.0 | 0.0 | 0.00 | 0.00 | 0.00 | 61 | 1010.2 |
| 20260505001703 | 18 | 137 | 0.0 | 0.0 | 0.00 | 0.00 | 0.00 | 59 | 1010.2 |
| 20260505001204 | 18 | 160 | 0.0 | 3.2 | 0.00 | 0.00 | 0.00 | 58 | 1010.2 |
| 20260505000704 | 19 | 137 | 0.0 | 3.2 | 0.00 | 0.00 | 0.00 | 57 | 1010.2 |
| 20260505000204 | 20 | 148 | 0.0 | 0.0 | 0.00 | 0.00 | 0.00 | 55 | 1010.0 |
| 20260504235203 | 20 | 177 | 1.6 | 8.0 | 0.00 | 0.00 | 0.00 | 46 | 1009.8 |
| 20260504234203 | 21 | 185 | 1.6 | 11.3 | 0.00 | 0.00 | 0.00 | 46 | 1009.8 |
| 20260504233706 | 21 | 178 | 1.6 | 8.0 | 0.00 | 0.00 | 0.00 | 45 | 1009.5 |
| 20260504232703 | 21 | 200 | 3.2 | 11.3 | 0.00 | 0.00 | 0.00 | 42 | 1009.5 |
| 20260504232203 | 21 | 207 | 8.0 | 20.9 | 0.00 | 0.00 | 0.00 | 41 | 1009.8 |
| 20260504231704 | 22 | 193 | 8.0 | 27.4 | 0.00 | 0.00 | 0.00 | 41 | 1009.5 |
| 20260504231203 | 22 | 181 | 8.0 | 27.4 | 0.00 | 0.00 | 0.00 | 41 | 1009.5 |
| 20260504230703 | 22 | 195 | 6.4 | 16.1 | 0.00 | 0.00 | 0.00 | 40 | 1009.5 |
| 20260504230205 | 22 | 205 | 4.8 | 11.3 | 0.00 | 0.00 | 0.00 | 39 | 1009.7 |
| 20260504225703 | 22 | 214 | 4.8 | 24.1 | 0.00 | 0.00 | 0.00 | 38 | 1009.5 |
| 20260504225203 | 22 | 194 | 3.2 | 11.3 | 0.00 | 0.00 | 0.00 | 39 | 1009.5 |
| 20260504224203 | 22 | 209 | 1.6 | 20.9 | 0.00 | 0.00 | 0.00 | 38 | 1009.5 |
| 20260504223704 | 22 | 182 | 6.4 | 20.9 | 0.00 | 0.00 | 0.00 | 38 | 1009.5 |
| 20260504223203 | 23 | 210 | 4.8 | 11.3 | 0.00 | 0.00 | 0.00 | 37 | 1009.5 |
| 20260504222703 | 23 | 211 | 3.2 | 8.0 | 0.00 | 0.00 | 0.00 | 37 | 1009.5 |
| 20260504222204 | 23 | 211 | 6.4 | 20.9 | 0.00 | 0.00 | 0.00 | 37 | 1009.5 |
| 20260504221704 | 23 | 237 | 3.2 | 16.1 | 0.00 | 0.00 | 0.00 | 37 | 1009.5 |
| 20260504221203 | 23 | 193 | 3.2 | 16.1 | 0.00 | 0.00 | 0.00 | 36 | 1009.3 |
| 20260504220703 | 23 | 190 | 4.8 | 16.1 | 0.00 | 0.00 | 0.00 | 36 | 1009.5 |
| 20260504220203 | 23 | 179 | 8.0 | 16.1 | 0.00 | 0.00 | 0.00 | 36 | 1009.5 |
| 20260504215206 | 23 | 223 | 3.2 | 20.9 | 0.00 | 0.00 | 0.00 | 37 | 1009.5 |
| 20260504214704 | 23 | 193 | 4.8 | 24.1 | 0.00 | 0.00 | 0.00 | 37 | 1009.5 |
| 20260504214203 | 23 | 186 | 8.0 | 16.1 | 0.00 | 0.00 | 0.00 | 37 | 1009.6 |
| 20260504213703 | 23 | 221 | 3.2 | 20.9 | 0.00 | 0.00 | 0.00 | 37 | 1009.5 |
| 20260504213206 | 23 | 207 | 6.4 | 20.9 | 0.00 | 0.00 | 0.00 | 37 | 1009.8 |
| 20260504212703 | 23 | 171 | 6.4 | 16.1 | 0.00 | 0.00 | 0.00 | 37 | 1009.7 |
| 20260504212203 | 23 | 189 | 9.7 | 27.4 | 0.00 | 0.00 | 0.00 | 36 | 1009.8 |
| 20260504211203 | 23 | 196 | 11.3 | 16.1 | 0.00 | 0.00 | 0.00 | 35 | 1009.8 |
| 20260504210203 | 23 | 158 | 9.7 | 24.1 | 0.00 | 0.00 | 0.00 | 37 | 1009.6 |
| 20260504204703 | 23 | 203 | 9.7 | 20.9 | 0.00 | 0.00 | 0.00 | 35 | 1009.5 |
| 20260504204203 | 23 | 200 | 1.6 | 16.1 | 0.00 | 0.00 | 0.00 | 36 | 1009.5 |
| 20260504203704 | 23 | 227 | 11.3 | 27.4 | 0.00 | 0.00 | 0.00 | 37 | 1009.5 |
| 20260504203203 | 23 | 234 | 4.8 | 24.1 | 0.00 | 0.00 | 0.00 | 37 | 1009.8 |
| 20260504202204 | 23 | 225 | 8.0 | 24.1 | 0.00 | 0.00 | 0.00 | 35 | 1009.6 |
| 20260504201703 | 23 | 203 | 1.6 | 20.9 | 0.00 | 0.00 | 0.00 | 36 | 1010.0 |
| 20260504201204 | 23 | 198 | 8.0 | 27.4 | 0.00 | 0.00 | 0.00 | 35 | 1009.5 |
| 20260504200703 | 23 | 219 | 16.1 | 27.4 | 0.00 | 0.00 | 0.00 | 35 | 1009.5 |
| 20260504200203 | 23 | 190 | 8.0 | 16.1 | 0.00 | 0.00 | 0.00 | 35 | 1009.8 |
| 20260504195706 | 23 | 207 | 4.8 | 24.1 | 0.00 | 0.00 | 0.00 | 34 | 1009.8 |
| 20260504195204 | 23 | 196 | 6.4 | 24.1 | 0.00 | 0.00 | 0.00 | 36 | 1009.8 |
| 20260504194704 | 23 | 206 | 9.7 | 20.9 | 0.00 | 0.00 | 0.00 | 35 | 1010.2 |
| 20260504193703 | 23 | 188 | 11.3 | 24.1 | 0.00 | 0.00 | 0.00 | 36 | 1010.2 |
| 20260504193204 | 23 | 202 | 4.8 | 16.1 | 0.00 | 0.00 | 0.00 | 35 | 1010.2 |
| 20260504192703 | 23 | 206 | 8.0 | 27.4 | 0.00 | 0.00 | 0.00 | 36 | 1010.2 |
| 20260504192204 | 23 | 217 | 8.0 | 24.1 | 0.00 | 0.00 | 0.00 | 37 | 1010.5 |
| 20260504191704 | 23 | 202 | 8.0 | 24.1 | 0.00 | 0.00 | 0.00 | 36 | 1010.3 |
| 20260504191203 | 23 | 223 | 3.2 | 16.1 | 0.00 | 0.00 | 0.00 | 35 | 1010.5 |
| 20260504190703 | 22 | 187 | 8.0 | 16.1 | 0.00 | 0.00 | 0.00 | 36 | 1010.5 |
| 20260504190203 | 22 | 77 | 3.2 | 24.1 | 0.00 | 0.00 | 0.00 | 38 | 1010.5 |
| 20260504185704 | 22 | 197 | 6.4 | 20.9 | 0.00 | 0.00 | 0.00 | 37 | 1010.5 |
| 20260504185203 | 22 | 208 | 9.7 | 20.9 | 0.00 | 0.00 | 0.00 | 36 | 1010.8 |
| 20260504184703 | 22 | 198 | 8.0 | 20.9 | 0.00 | 0.00 | 0.00 | 38 | 1010.7 |
| 20260504184204 | 22 | 232 | 4.8 | 27.4 | 0.00 | 0.00 | 0.00 | 36 | 1010.8 |
| 20260504183203 | 22 | 177 | 11.3 | 16.1 | 0.00 | 0.00 | 0.00 | 39 | 1010.8 |
| 20260504182703 | 22 | 177 | 9.7 | 16.1 | 0.00 | 0.00 | 0.00 | 39 | 1010.8 |
| 20260504182204 | 22 | 208 | 4.8 | 16.1 | 0.00 | 0.00 | 0.00 | 38 | 1011.2 |
| 20260504181703 | 22 | 212 | 4.8 | 16.1 | 0.00 | 0.00 | 0.00 | 38 | 1010.9 |
| 20260504181203 | 22 | 194 | 11.3 | 24.1 | 0.00 | 0.00 | 0.00 | 39 | 1011.2 |
| 20260504180703 | 21 | 210 | 11.3 | 27.4 | 0.00 | 0.00 | 0.00 | 39 | 1011.2 |
| 20260504180204 | 21 | 168 | 14.5 | 27.4 | 0.00 | 0.00 | 0.00 | 40 | 1011.2 |
| 20260504175203 | 21 | 217 | 8.0 | 16.1 | 0.00 | 0.00 | 0.00 | 40 | 1011.4 |
| 20260504174704 | 21 | 172 | 12.9 | 27.4 | 0.00 | 0.00 | 0.00 | 41 | 1011.8 |
| 20260504174203 | 21 | 183 | 11.3 | 24.1 | 0.00 | 0.00 | 0.00 | 41 | 1011.5 |
| 20260504173703 | 21 | 223 | 8.0 | 27.4 | 0.00 | 0.00 | 0.00 | 42 | 1011.6 |
| 20260504173203 | 21 | 218 | 11.3 | 27.4 | 0.00 | 0.00 | 0.00 | 41 | 1011.9 |
| 20260504172703 | 21 | 207 | 4.8 | 24.1 | 0.00 | 0.00 | 0.00 | 41 | 1011.8 |
| 20260504171703 | 21 | 224 | 4.8 | 16.1 | 0.00 | 0.00 | 0.00 | 39 | 1011.5 |
| 20260504171204 | 21 | 197 | 3.2 | 11.3 | 0.00 | 0.00 | 0.00 | 42 | 1011.9 |
| 20260504170704 | 21 | 197 | 8.0 | 20.9 | 0.00 | 0.00 | 0.00 | 41 | 1011.9 |
| 20260504170203 | 21 | 205 | 8.0 | 20.9 | 0.00 | 0.00 | 0.00 | 41 | 1011.9 |
| 20260504160203 | 20 | 226 | 6.4 | 24.1 | 0.00 | 0.00 | 0.00 | 40 | 1013.0 |